Dewpoint
43 44 56 58 60 63 65 67 67 69 70 73 73 73 73 73 73 73 73 73 74 74 72 73 73 72 72 71 72 72 72 72 71 72 72 72 71 71 71 72 71 70 71
42 44 53 57 58 60 63 64 66 67 69 70 72 73 73 73 73 73 73 73 73 73 72 72 72 72 72 71 72 72 71 71 71 71 72 71 72 71 71 71 71 71 71
43 44 46 55 57 58 59 62 64 66 68 69 71 72 73 73 73 73 73 73 73 73 72 71 72 72 72 72 72 71 71 71 71 71 71 69 69 71 71 71 71 71 70
43 43 45 54 55 56 57 59 61 64 66 67 67 69 72 73 73 73 72 72 73 73 72 71 72 72 72 72 71 71 71 71 70 70 67 68 67 71 71 71 71 71 71
41 41 43 53 54 55 56 58 59 60 62 63 65 67 68 71 73 73 72 71 73 73 73 72 72 73 71 71 71 70 70 70 69 66 66 68 69 70 70 71 71 71 70
40 40 42 51 53 54 55 55 57 59 60 60 61 64 66 68 70 71 72 71 72 73 73 73 73 72 71 70 70 70 69 69 67 64 67 69 69 70 70 71 71 71 70
40 41 38 49 50 52 54 55 55 58 58 58 60 60 62 64 66 69 71 71 71 73 73 73 73 71 70 69 70 69 68 68 65 65 67 69 69 71 70 70 71 71 70
40 41 38 45 49 49 51 52 53 54 55 57 59 58 59 61 62 64 67 70 71 71 72 72 71 71 70 69 69 68 68 67 67 67 67 69 70 71 70 70 70 70 70
37 42 38 37 43 47 47 49 50 52 53 54 57 56 57 58 59 61 62 64 68 70 71 71 71 70 70 69 68 68 67 67 67 66 68 69 71 71 70 70 70 70 70
34 36 39 35 37 40 39 47 47 49 51 53 56 57 56 56 57 58 59 61 63 66 70 71 70 69 69 69 68 67 66 67 67 67 67 68 70 71 69 70 70 70 70
33 34 38 36 34 39 37 42 46 47 48 51 50 50 53 54 55 55 57 59 60 61 64 69 69 69 68 68 68 66 67 68 66 67 67 66 71 71 70 70 70 70 69
30 33 36 36 34 36 36 39 42 41 42 47 47 46 48 51 52 55 56 57 57 58 60 63 68 67 68 68 68 67 67 67 66 64 64 67 70 71 70 70 70 69 69
29 33 35 37 33 34 38 35 39 41 42 44 45 45 45 47 48 50 52 54 55 56 55 58 64 68 69 69 67 66 67 66 66 66 65 66 68 70 70 70 69 69 69
29 31 34 36 32 33 38 33 37 39 42 42 42 44 43 44 44 46 49 50 54 55 54 55 58 66 68 68 67 67 67 66 66 67 66 65 66 69 70 70 69 69 69
29 31 33 33 32 34 33 33 35 37 38 42 42 42 43 42 42 44 46 48 50 51 54 54 55 58 67 67 67 67 66 66 65 66 64 64 65 67 69 69 69 69 68
29 30 33 31 33 34 32 32 35 35 37 40 42 41 41 40 41 42 43 45 47 48 50 55 54 56 64 67 66 66 66 66 64 65 65 64 64 64 67 68 69 69 68
29 30 32 31 33 34 32 33 35 34 37 39 41 40 40 40 39 39 41 42 44 47 48 50 52 55 64 66 66 66 65 65 65 63 65 64 61 61 62 67 67 67 68
29 30 31 32 33 33 32 33 35 35 36 37 40 38 38 38 39 37 38 40 42 44 46 47 48 51 54 64 63 64 65 64 64 64 64 66 65 63 62 66 66 66 67
29 30 30 31 32 32 33 34 35 35 37 35 38 36 35 38 39 35 36 37 40 42 44 45 46 48 49 56 62 62 63 63 64 64 64 66 66 66 66 65 65 65 65
30 30 30 31 32 32 33 33 34 35 37 36 33 35 34 36 37 37 35 35 38 40 41 43 43 45 48 51 61 62 62 62 63 62 62 63 65 66 66 66 66 65 63
30 30 30 30 31 32 32 32 31 32 35 35 33 35 33 34 35 36 37 34 36 38 40 41 42 42 46 48 53 59 60 61 61 63 62 63 64 65 66 66 66 66 64
30 30 30 29 30 30 32 32 33 33 35 34 33 34 32 33 33 33 34 34 34 37 38 38 41 39 43 45 46 51 55 57 59 61 63 62 61 64 65 66 66 65 65
27 30 30 29 30 31 32 33 33 34 34 33 32 31 32 32 31 32 32 32 33 38 37 37 39 39 38 42 44 44 53 53 56 60 62 62 61 62 64 65 65 65 64
25 29 30 30 31 31 32 32 31 33 31 33 31 31 32 31 30 32 31 31 33 39 37 37 37 39 39 38 42 45 45 46 54 54 59 60 62 62 62 64 65 65 64
26 30 31 29 31 31 32 32 33 31 32 32 30 30 30 30 29 29 33 30 31 37 37 37 37 36 39 39 39 41 42 45 50 56 54 58 60 61 63 63 65 64 64
28 31 29 29 29 31 31 32 32 30 30 29 29 29 30 31 30 31 32 31 30 32 35 34 34 35 37 38 40 40 41 42 46 48 55 56 57 58 61 64 65 65 64
Lifted_Index
14 13 11 6 1 -1 -2 -2 -3 -4 -5 -6 -6 -7 -7 -7 -6 -6 -6 -6 -6 -6 -6 -5 -5 -5 -5 -5 -5 -5 -5 -5 -5 -5 -6 -6 -5 -5 -5 -6 -6 -6 -6
14 14 12 8 3 -0 -2 -2 -3 -3 -4 -5 -6 -7 -7 -7 -7 -6 -6 -6 -6 -6 -6 -6 -5 -5 -5 -5 -5 -4 -4 -5 -5 -6 -6 -5 -5 -5 -5 -6 -6 -6 -6
14 14 13 10 7 3 -1 -2 -2 -3 -4 -5 -6 -7 -7 -7 -7 -7 -6 -6 -6 -6 -6 -6 -6 -6 -5 -5 -5 -4 -4 -5 -5 -6 -5 -5 -5 -5 -5 -6 -6 -6 -6
15 15 14 12 10 6 2 -1 -2 -3 -3 -5 -6 -6 -7 -7 -7 -7 -7 -7 -7 -7 -7 -6 -6 -6 -5 -5 -5 -4 -4 -5 -5 -5 -5 -5 -5 -5 -6 -6 -6 -6 -6
17 17 16 13 12 9 6 2 -1 -2 -3 -4 -5 -6 -7 -7 -7 -7 -7 -7 -7 -7 -7 -7 -7 -6 -5 -5 -5 -4 -4 -4 -4 -4 -4 -5 -5 -6 -6 -6 -6 -6 -6
18 18 17 15 13 11 9 6 2 -0 -2 -3 -4 -6 -6 -7 -7 -7 -7 -7 -7 -7 -8 -8 -7 -6 -5 -5 -5 -4 -4 -3 -3 -4 -4 -5 -5 -6 -6 -6 -6 -6 -6
18 18 18 16 14 13 11 9 7 3 0 -2 -3 -5 -6 -6 -7 -7 -7 -7 -7 -7 -8 -8 -8 -6 -5 -5 -5 -4 -4 -3 -3 -4 -5 -5 -6 -6 -6 -6 -6 -6 -6
18 18 18 17 16 14 13 11 10 7 4 2 -1 -3 -5 -6 -6 -6 -6 -6 -6 -7 -8 -8 -8 -7 -6 -5 -5 -4 -4 -3 -3 -4 -5 -5 -6 -6 -6 -6 -6 -6 -5
18 18 18 18 17 16 14 13 12 11 9 6 3 -1 -3 -4 -5 -6 -6 -5 -5 -6 -7 -8 -8 -7 -6 -6 -5 -4 -4 -3 -3 -4 -4 -6 -6 -7 -6 -6 -6 -5 -5
18 18 18 18 17 17 16 15 14 13 11 10 7 4 0 -2 -4 -5 -5 -5 -5 -5 -6 -7 -7 -7 -7 -6 -5 -5 -4 -4 -3 -3 -4 -5 -6 -7 -6 -6 -6 -5 -5
18 18 18 18 18 17 16 16 15 14 13 12 10 8 5 3 -0 -2 -4 -5 -4 -4 -5 -6 -6 -7 -7 -6 -6 -5 -4 -4 -3 -3 -3 -5 -6 -6 -6 -6 -5 -5 -5
18 18 18 18 18 17 17 16 15 15 14 14 13 12 10 8 5 1 -2 -3 -4 -4 -4 -4 -5 -5 -6 -6 -6 -5 -5 -4 -3 -2 -2 -4 -6 -6 -6 -6 -5 -5 -5
18 18 18 18 18 18 17 17 16 15 15 15 15 15 14 13 10 6 2 -1 -2 -3 -4 -4 -4 -4 -5 -6 -6 -5 -5 -4 -3 -2 -2 -3 -5 -6 -6 -6 -5 -4 -4
17 17 17 18 18 18 18 17 16 16 15 15 15 16 16 15 14 11 7 3 1 -1 -2 -3 -3 -4 -5 -5 -5 -5 -5 -4 -3 -3 -2 -2 -3 -5 -6 -5 -5 -4 -4
16 16 16 16 16 17 17 17 16 16 15 14 15 15 16 16 16 14 11 7 5 2 -0 -1 -2 -3 -4 -4 -5 -5 -4 -4 -3 -3 -2 -1 -2 -3 -5 -5 -5 -4 -4
14 14 15 15 15 16 16 16 16 15 14 13 14 14 15 16 17 16 14 12 9 6 4 2 -1 -2 -3 -4 -4 -4 -4 -3 -3 -3 -2 -1 -1 -2 -3 -4 -4 -4 -4
13 13 13 14 14 14 15 15 15 14 13 12 12 13 14 16 17 17 16 14 13 10 8 5 1 -1 -2 -3 -3 -3 -3 -3 -3 -2 -2 -1 -0 0 -1 -3 -4 -4 -4
13 13 13 13 13 14 14 14 14 13 12 11 11 12 13 14 15 16 16 15 14 13 10 6 3 1 -0 -1 -2 -2 -3 -3 -2 -2 -2 -2 -1 0 -1 -3 -4 -3 -3
12 12 12 12 13 13 13 14 13 13 11 10 10 11 12 13 14 15 16 16 15 14 12 8 4 3 2 1 -0 -1 -1 -2 -2 -2 -2 -2 -2 -2 -2 -3 -4 -3 -3
12 12 12 12 12 12 12 13 13 13 12 11 11 11 12 12 13 13 15 16 16 15 13 11 7 4 3 2 1 0 -0 -0 -1 -1 -1 -2 -2 -3 -3 -3 -4 -3 -3
11 11 11 11 11 11 11 12 12 12 12 11 11 11 12 13 12 13 13 15 15 15 14 13 10 6 4 3 1 1 1 1 0 -1 -1 -1 -2 -2 -3 -3 -3 -3 -3
11 11 11 10 10 10 11 11 12 12 12 11 10 11 12 13 13 13 13 14 14 15 15 14 12 8 6 4 2 1 1 1 1 0 -1 -1 -1 -1 -2 -3 -3 -3 -3
11 10 10 10 10 10 11 11 12 12 12 11 10 11 12 13 13 13 13 13 13 14 15 15 14 11 8 5 3 2 2 1 1 0 -0 -0 -1 -1 -2 -2 -3 -3 -3
10 10 10 10 10 10 11 11 12 12 12 11 10 11 12 12 13 13 13 13 13 14 15 15 15 13 11 7 5 4 3 2 1 1 0 0 -0 -1 -1 -2 -2 -3 -3
10 10 10 10 10 11 11 12 12 12 12 11 10 10 11 12 13 13 13 14 14 14 14 15 15 14 13 10 7 6 4 3 2 1 1 1 0 0 -1 -1 -2 -2 -3
10 10 10 10 11 11 12 12 12 12 12 11 10 10 11 12 12 13 13 14 14 14 14 15 15 15 14 12 10 7 5 3 2 1 1 1 1 0 -0 -1 -2 -2 -3